Time,TemperatureF,DewpointF,PressureIn,WindDirection,WindDirectionDegrees,WindSpeedMPH,WindSpeedGustMPH,Humidity,HourlyPrecipIn,Conditions,Clouds,dailyrainin,SoftwareType,DateUTC
2013-02-28 00:04:00,26.4,3.7,25.31,East,82,4.0,5.8,37,0.00,,,-99.99,FreeWX 2.04,2013-02-28 07:04:00,
2013-02-28 00:09:00,27.0,3.6,25.31,East,82,3.0,6.3,36,0.00,,,-99.99,FreeWX 2.04,2013-02-28 07:09:00,
2013-02-28 00:14:00,26.6,3.2,25.31,East,97,2.0,4.0,36,0.00,,,-99.99,FreeWX 2.04,2013-02-28 07:14:00,
2013-02-28 00:19:00,26.2,3.6,25.31,ESE,107,1.0,4.0,37,0.00,,,-99.99,FreeWX 2.04,2013-02-28 07:19:00,
2013-02-28 00:24:00,25.5,3.6,25.31,ESE,107,1.0,3.6,38,0.00,,,-99.99,FreeWX 2.04,2013-02-28 07:24:00,
2013-02-28 00:29:00,25.2,3.7,25.31,North,-999,0.0,0.0,39,0.00,,,-99.99,FreeWX 2.04,2013-02-28 07:29:00,
2013-02-28 00:34:00,24.8,4.5,25.34,North,-999,0.0,0.0,41,0.00,,,-99.99,FreeWX 2.04,2013-02-28 07:34:00,
2013-02-28 00:39:00,23.9,4.1,25.34,North,-999,0.0,3.1,42,0.00,,,-99.99,FreeWX 2.04,2013-02-28 07:39:00,
2013-02-28 00:44:00,23.9,4.6,25.34,North,-999,0.0,0.0,43,0.00,,,-99.99,FreeWX 2.04,2013-02-28 07:44:00,
2013-02-28 00:49:00,24.4,5.2,25.34,ESE,106,1.0,5.4,43,0.00,,,-99.99,FreeWX 2.04,2013-02-28 07:49:00,
2013-02-28 00:54:00,24.3,5.0,25.34,ESE,105,2.0,3.6,43,0.00,,,-99.99,FreeWX 2.04,2013-02-28 07:54:00,
2013-02-28 00:59:00,24.6,5.4,25.34,ESE,104,1.0,3.1,43,0.00,,,-99.99,FreeWX 2.04,2013-02-28 07:59:00,
2013-02-28 01:04:00,24.8,5.5,25.34,North,-999,0.0,4.5,43,0.00,,,-99.99,FreeWX 2.04,2013-02-28 08:04:00,
2013-02-28 01:09:00,25.2,5.9,25.34,East,98,1.0,4.9,43,0.00,,,-99.99,FreeWX 2.04,2013-02-28 08:09:00,
2013-02-28 01:14:00,24.6,5.4,25.34,East,82,3.0,4.5,43,0.00,,,-99.99,FreeWX 2.04,2013-02-28 08:14:00,
2013-02-28 01:19:00,24.8,5.5,25.34,ENE,69,2.0,4.9,43,0.00,,,-99.99,FreeWX 2.04,2013-02-28 08:19:00,
2013-02-28 01:24:00,24.8,5.5,25.34,ENE,66,1.0,4.5,43,0.00,,,-99.99,FreeWX 2.04,2013-02-28 08:24:00,
2013-02-28 01:29:00,24.4,5.2,25.34,ENE,66,2.0,4.5,43,0.00,,,-99.99,FreeWX 2.04,2013-02-28 08:29:00,
2013-02-28 01:35:00,23.9,5.2,25.34,ENE,66,2.0,3.6,44,0.00,,,-99.99,FreeWX 2.04,2013-02-28 08:35:00,
2013-02-28 01:40:00,23.7,5.0,25.34,North,-999,0.0,3.1,44,0.00,,,-99.99,FreeWX 2.04,2013-02-28 08:40:00,
2013-02-28 01:45:00,23.5,4.8,25.34,North,-999,0.0,0.0,44,0.00,,,-99.99,FreeWX 2.04,2013-02-28 08:45:00,
2013-02-28 01:50:00,23.9,5.7,25.34,North,-999,0.0,3.6,45,0.00,,,-99.99,FreeWX 2.04,2013-02-28 08:50:00,
2013-02-28 01:55:00,24.1,5.4,25.34,ENE,66,1.0,4.0,44,0.00,,,-99.99,FreeWX 2.04,2013-02-28 08:55:00,
2013-02-28 02:00:00,23.9,5.2,25.34,ENE,66,2.0,5.4,44,0.00,,,-99.99,FreeWX 2.04,2013-02-28 09:00:00,
2013-02-28 02:05:00,23.9,5.7,25.34,ENE,66,4.0,5.4,45,0.00,,,-99.99,FreeWX 2.04,2013-02-28 09:05:00,
2013-02-28 02:10:00,24.4,5.7,25.34,ENE,57,4.0,6.7,44,0.00,,,-99.99,FreeWX 2.04,2013-02-28 09:10:00,
2013-02-28 02:15:00,24.4,5.7,25.34,NE,44,3.0,5.8,44,0.00,,,-99.99,FreeWX 2.04,2013-02-28 09:15:00,
2013-02-28 02:20:00,24.4,5.7,25.34,NE,37,3.0,5.8,44,0.00,,,-99.99,FreeWX 2.04,2013-02-28 09:20:00,
2013-02-28 02:25:00,25.3,6.1,25.34,NNE,27,5.0,9.6,43,0.00,,,-99.99,FreeWX 2.04,2013-02-28 09:25:00,
2013-02-28 02:30:00,24.8,5.5,25.34,NNE,23,5.0,7.4,43,0.00,,,-99.99,FreeWX 2.04,2013-02-28 09:30:00,
2013-02-28 02:35:00,26.1,6.1,25.34,NNE,21,4.0,6.7,42,0.00,,,-99.99,FreeWX 2.04,2013-02-28 09:35:00,
2013-02-28 02:40:00,26.1,5.5,25.34,NNE,15,4.0,5.8,41,0.00,,,-99.99,FreeWX 2.04,2013-02-28 09:40:00,
2013-02-28 02:45:00,25.5,5.2,25.34,NNE,12,3.0,4.5,41,0.00,,,-99.99,FreeWX 2.04,2013-02-28 09:45:00,
2013-02-28 02:50:00,24.6,4.8,25.34,North,11,2.0,3.6,42,0.00,,,-99.99,FreeWX 2.04,2013-02-28 09:50:00,
2013-02-28 02:55:00,24.4,4.6,25.34,North,11,1.0,3.6,42,0.00,,,-99.99,FreeWX 2.04,2013-02-28 09:55:00,
2013-02-28 03:00:00,23.9,4.6,25.34,North,-999,0.0,3.1,43,0.00,,,-99.99,FreeWX 2.04,2013-02-28 10:00:00,
2013-02-28 03:05:00,23.9,4.6,25.34,North,11,1.0,3.1,43,0.00,,,-99.99,FreeWX 2.04,2013-02-28 10:05:00,
2013-02-28 03:10:00,23.9,4.6,25.34,North,-999,0.0,3.1,43,0.00,,,-99.99,FreeWX 2.04,2013-02-28 10:10:00,
2013-02-28 03:15:00,23.5,4.3,25.34,North,-999,0.0,3.1,43,0.00,,,-99.99,FreeWX 2.04,2013-02-28 10:15:00,
2013-02-28 03:20:00,23.5,4.3,25.34,North,-999,0.0,3.1,43,0.00,,,-99.99,FreeWX 2.04,2013-02-28 10:20:00,
2013-02-28 03:25:00,23.5,4.3,25.34,North,11,1.0,3.6,43,0.00,,,-99.99,FreeWX 2.04,2013-02-28 10:25:00,
2013-02-28 03:30:00,23.4,4.3,25.34,North,11,2.0,4.0,43,0.00,,,-99.99,FreeWX 2.04,2013-02-28 10:30:00,
2013-02-28 03:35:00,23.4,4.6,25.34,North,-999,0.0,3.1,44,0.00,,,-99.99,FreeWX 2.04,2013-02-28 10:35:00,
2013-02-28 03:40:00,23.5,4.8,25.34,North,-999,0.0,3.1,44,0.00,,,-99.99,FreeWX 2.04,2013-02-28 10:40:00,
2013-02-28 03:45:00,23.9,4.6,25.34,North,11,1.0,4.9,43,0.00,,,-99.99,FreeWX 2.04,2013-02-28 10:45:00,
2013-02-28 03:50:00,23.9,4.6,25.34,North,10,2.0,4.9,43,0.00,,,-99.99,FreeWX 2.04,2013-02-28 10:50:00,
2013-02-28 03:55:00,23.9,5.2,25.34,North,8,1.0,3.6,44,0.00,,,-99.99,FreeWX 2.04,2013-02-28 10:55:00,
2013-02-28 04:00:00,23.4,4.6,25.34,North,-999,0.0,0.0,44,0.00,,,-99.99,FreeWX 2.04,2013-02-28 11:00:00,
2013-02-28 04:05:00,23.0,4.5,25.34,North,-999,0.0,0.0,44,0.00,,,-99.99,FreeWX 2.04,2013-02-28 11:05:00,
2013-02-28 04:10:00,22.3,3.7,25.34,North,8,1.0,4.9,44,0.00,,,-99.99,FreeWX 2.04,2013-02-28 11:10:00,
2013-02-28 04:15:00,23.4,5.2,25.34,North,2,3.0,5.8,45,0.00,,,-99.99,FreeWX 2.04,2013-02-28 11:15:00,
2013-02-28 04:20:00,22.5,5.4,25.34,NNW,338,4.0,5.8,47,0.00,,,-99.99,FreeWX 2.04,2013-02-28 11:20:00,
2013-02-28 04:25:00,22.1,6.3,25.34,NW,320,4.0,6.3,50,0.00,,,-99.99,FreeWX 2.04,2013-02-28 11:25:00,
2013-02-28 04:30:00,21.7,7.3,25.34,NW,318,4.0,6.9,53,0.00,,,-99.99,FreeWX 2.04,2013-02-28 11:30:00,
2013-02-28 04:35:00,21.6,7.2,25.34,NNW,329,4.0,5.4,53,0.00,,,-99.99,FreeWX 2.04,2013-02-28 11:35:00,
2013-02-28 04:40:00,21.4,7.3,25.34,NNW,338,4.0,5.4,54,0.00,,,-99.99,FreeWX 2.04,2013-02-28 11:40:00,
2013-02-28 04:45:00,20.8,6.8,25.34,NNW,334,4.0,5.8,54,0.00,,,-99.99,FreeWX 2.04,2013-02-28 11:45:00,
2013-02-28 04:50:00,20.7,7.2,25.34,NNW,331,4.0,6.7,55,0.00,,,-99.99,FreeWX 2.04,2013-02-28 11:50:00,
2013-02-28 04:55:00,20.5,7.3,25.34,NNW,347,4.0,7.4,56,0.00,,,-99.99,FreeWX 2.04,2013-02-28 11:55:00,
2013-02-28 05:00:00,20.5,7.3,25.34,North,3,4.0,6.7,56,0.00,,,-99.99,FreeWX 2.04,2013-02-28 12:00:00,
2013-02-28 05:05:00,20.3,7.2,25.34,North,2,4.0,7.4,56,0.00,,,-99.99,FreeWX 2.04,2013-02-28 12:05:00,
2013-02-28 05:10:00,20.5,7.7,25.34,North,351,5.0,8.3,57,0.00,,,-99.99,FreeWX 2.04,2013-02-28 12:10:00,
2013-02-28 05:15:00,20.5,7.7,25.34,NNW,340,6.0,11.6,57,0.00,,,-99.99,FreeWX 2.04,2013-02-28 12:15:00,
2013-02-28 05:20:00,20.7,7.5,25.37,NNW,331,6.0,8.7,56,0.00,,,-99.99,FreeWX 2.04,2013-02-28 12:20:00,
2013-02-28 05:25:00,20.8,7.2,25.37,NNW,331,6.0,10.1,55,0.00,,,-99.99,FreeWX 2.04,2013-02-28 12:25:00,
2013-02-28 05:30:00,21.0,7.0,25.37,NNW,343,7.0,11.0,54,0.00,,,-99.99,FreeWX 2.04,2013-02-28 12:30:00,
2013-02-28 05:35:00,21.0,7.0,25.37,NNW,346,7.0,10.1,54,0.00,,,-99.99,FreeWX 2.04,2013-02-28 12:35:00,
2013-02-28 05:40:00,21.0,6.6,25.37,NNW,344,7.0,12.1,53,0.00,,,-99.99,FreeWX 2.04,2013-02-28 12:40:00,
2013-02-28 05:45:00,20.7,6.3,25.37,NNW,344,8.0,13.0,53,0.00,,,-99.99,FreeWX 2.04,2013-02-28 12:45:00,
2013-02-28 05:50:00,20.7,5.9,25.37,NNW,347,9.0,12.1,52,0.00,,,-99.99,FreeWX 2.04,2013-02-28 12:50:00,
2013-02-28 05:55:00,20.5,5.2,25.37,North,356,9.0,12.5,51,0.00,,,-99.99,FreeWX 2.04,2013-02-28 12:55:00,
2013-02-28 06:00:00,20.5,5.7,25.37,North,6,8.0,10.5,52,0.00,,,-99.99,FreeWX 2.04,2013-02-28 13:00:00,
2013-02-28 06:05:00,20.1,5.7,25.37,North,9,7.0,10.5,53,0.00,,,-99.99,FreeWX 2.04,2013-02-28 13:05:00,
2013-02-28 06:10:00,20.1,5.7,25.37,North,7,7.0,9.6,53,0.00,,,-99.99,FreeWX 2.04,2013-02-28 13:10:00,
2013-02-28 06:15:00,20.5,6.1,25.37,North,0,7.0,9.6,53,0.00,,,-99.99,FreeWX 2.04,2013-02-28 13:15:00,
2013-02-28 06:20:00,20.5,5.7,25.37,North,356,7.0,10.5,52,0.00,,,-99.99,FreeWX 2.04,2013-02-28 13:20:00,
2013-02-28 06:25:00,18.9,5.0,25.37,North,10,5.0,5.0,54,0.00,,,-99.99,FreeWX 2.04,2013-02-28 13:25:00,
2013-02-28 06:30:00,18.5,4.6,25.37,NNE,25,3.0,5.4,54,0.00,,,-99.99,FreeWX 2.04,2013-02-28 13:30:00,
2013-02-28 06:35:00,18.5,5.5,25.37,NNE,28,3.0,4.5,56,0.00,,,-99.99,FreeWX 2.04,2013-02-28 13:35:00,
2013-02-28 06:40:00,18.7,6.1,25.37,NNE,27,3.0,5.4,57,0.00,,,-99.99,FreeWX 2.04,2013-02-28 13:40:00,
2013-02-28 06:45:00,18.7,6.4,25.37,North,2,4.0,5.8,58,0.00,,,-99.99,FreeWX 2.04,2013-02-28 13:45:00,
2013-02-28 06:50:00,18.9,6.6,25.37,NNW,340,5.0,6.3,58,0.00,,,-99.99,FreeWX 2.04,2013-02-28 13:50:00,
2013-02-28 06:55:00,18.9,6.3,25.37,North,352,4.0,5.8,57,0.00,,,-99.99,FreeWX 2.04,2013-02-28 13:55:00,
2013-02-28 07:00:00,18.5,6.3,25.37,North,3,4.0,5.8,58,0.00,,,-99.99,FreeWX 2.04,2013-02-28 14:00:00,
2013-02-28 07:05:00,18.3,6.1,25.37,North,5,4.0,5.8,58,0.00,,,-99.99,FreeWX 2.04,2013-02-28 14:05:00,
2013-02-28 07:10:00,18.3,6.1,25.37,North,6,4.0,5.8,58,0.00,,,-99.99,FreeWX 2.04,2013-02-28 14:10:00,
2013-02-28 07:15:00,18.1,5.9,25.37,North,359,5.0,6.9,58,0.00,,,-99.99,FreeWX 2.04,2013-02-28 14:15:00,
2013-02-28 07:20:00,18.7,6.8,25.37,North,352,4.0,5.8,59,0.00,,,-99.99,FreeWX 2.04,2013-02-28 14:20:00,
2013-02-28 07:25:00,19.4,7.5,25.37,North,0,4.0,5.4,59,0.00,,,-99.99,FreeWX 2.04,2013-02-28 14:25:00,
2013-02-28 07:30:00,19.4,7.0,25.37,North,9,4.0,6.3,58,0.00,,,-99.99,FreeWX 2.04,2013-02-28 14:30:00,
2013-02-28 07:35:00,20.1,7.7,25.37,North,1,5.0,6.9,58,0.00,,,-99.99,FreeWX 2.04,2013-02-28 14:35:00,
2013-02-28 07:41:00,20.5,7.7,25.37,North,353,5.0,6.9,57,0.00,,,-99.99,FreeWX 2.04,2013-02-28 14:41:00,
2013-02-28 07:46:00,21.0,7.3,25.37,North,356,6.0,8.3,55,0.00,,,-99.99,FreeWX 2.04,2013-02-28 14:46:00,
2013-02-28 07:51:00,21.6,7.2,25.37,North,357,6.0,8.3,53,0.00,,,-99.99,FreeWX 2.04,2013-02-28 14:51:00,
2013-02-28 07:56:00,22.1,6.8,25.37,North,358,6.0,10.1,51,0.00,,,-99.99,FreeWX 2.04,2013-02-28 14:56:00,
2013-02-28 08:01:00,22.1,6.3,25.37,North,5,6.0,8.3,50,0.00,,,-99.99,FreeWX 2.04,2013-02-28 15:01:00,
2013-02-28 08:06:00,22.5,6.3,25.39,North,3,6.0,8.3,49,0.00,,,-99.99,FreeWX 2.04,2013-02-28 15:06:00,
2013-02-28 08:11:00,22.8,6.1,25.39,North,354,5.0,8.3,48,0.00,,,-99.99,FreeWX 2.04,2013-02-28 15:11:00,
2013-02-28 08:16:00,23.0,6.3,25.39,North,351,5.0,9.2,48,0.00,,,-99.99,FreeWX 2.04,2013-02-28 15:16:00,
2013-02-28 08:21:00,23.2,5.9,25.39,North,350,6.0,8.3,47,0.00,,,-99.99,FreeWX 2.04,2013-02-28 15:21:00,
2013-02-28 08:26:00,23.0,5.4,25.39,NNW,344,6.0,7.8,46,0.00,,,-99.99,FreeWX 2.04,2013-02-28 15:26:00,
2013-02-28 08:31:00,23.0,5.4,25.39,NNW,336,6.0,7.4,46,0.00,,,-99.99,FreeWX 2.04,2013-02-28 15:31:00,
2013-02-28 08:36:00,24.1,6.3,25.42,NNW,338,5.0,6.9,46,0.00,,,-99.99,FreeWX 2.04,2013-02-28 15:36:00,
2013-02-28 08:41:00,24.4,6.3,25.42,NNW,348,5.0,8.7,45,0.00,,,-99.99,FreeWX 2.04,2013-02-28 15:41:00,
2013-02-28 08:46:00,25.0,6.3,25.42,North,356,6.0,7.8,44,0.00,,,-99.99,FreeWX 2.04,2013-02-28 15:46:00,
2013-02-28 08:51:00,24.6,5.4,25.42,North,0,6.0,8.3,43,0.00,,,-99.99,FreeWX 2.04,2013-02-28 15:51:00,
2013-02-28 08:56:00,25.3,6.1,25.42,North,8,6.0,7.8,43,0.00,,,-99.99,FreeWX 2.04,2013-02-28 15:56:00,
2013-02-28 09:01:00,25.3,6.1,25.42,North,4,6.0,7.8,43,0.00,,,-99.99,FreeWX 2.04,2013-02-28 16:01:00,
2013-02-28 09:06:00,25.5,5.7,25.42,North,354,6.0,9.2,42,0.00,,,-99.99,FreeWX 2.04,2013-02-28 16:06:00,
2013-02-28 09:11:00,25.9,5.9,25.42,NNW,348,6.0,9.2,42,0.00,,,-99.99,FreeWX 2.04,2013-02-28 16:11:00,
2013-02-28 09:16:00,25.7,5.9,25.42,NNW,342,6.0,9.2,42,0.00,,,-99.99,FreeWX 2.04,2013-02-28 16:16:00,
2013-02-28 09:21:00,25.7,5.4,25.39,NNW,345,6.0,8.3,41,0.00,,,-99.99,FreeWX 2.04,2013-02-28 16:21:00,
2013-02-28 09:26:00,26.8,6.3,25.39,NNW,348,6.0,7.4,41,0.00,,,-99.99,FreeWX 2.04,2013-02-28 16:26:00,
2013-02-28 09:31:00,27.5,7.0,25.39,North,352,5.0,7.4,41,0.00,,,-99.99,FreeWX 2.04,2013-02-28 16:31:00,
2013-02-28 09:36:00,27.7,6.6,25.39,North,355,6.0,11.0,40,0.00,,,-99.99,FreeWX 2.04,2013-02-28 16:36:00,
2013-02-28 09:41:00,27.7,6.1,25.39,North,349,7.0,11.0,39,0.00,,,-99.99,FreeWX 2.04,2013-02-28 16:41:00,
2013-02-28 09:51:00,28.0,5.2,25.39,NNW,343,8.0,11.2,37,0.00,,,-99.99,FreeWX 2.04,2013-02-28 16:51:00,
2013-02-28 09:56:00,29.7,6.1,25.39,NNW,346,8.0,12.5,36,0.00,,,-99.99,FreeWX 2.04,2013-02-28 16:56:00,
2013-02-28 10:01:00,28.2,4.1,25.39,NNW,345,8.0,12.1,35,0.00,,,-99.99,FreeWX 2.04,2013-02-28 17:01:00,
2013-02-28 10:06:00,29.1,5.0,25.39,NNW,343,8.0,11.6,35,0.00,,,-99.99,FreeWX 2.04,2013-02-28 17:06:00,
2013-02-28 10:11:00,30.2,5.2,25.39,NNW,342,8.0,12.5,34,0.00,,,-99.99,FreeWX 2.04,2013-02-28 17:11:00,
2013-02-28 10:16:00,28.9,4.1,25.39,NNW,338,8.0,12.5,34,0.00,,,-99.99,FreeWX 2.04,2013-02-28 17:16:00,
2013-02-28 10:21:00,29.7,4.1,25.39,NNW,335,9.0,14.3,33,0.00,,,-99.99,FreeWX 2.04,2013-02-28 17:21:00,
2013-02-28 10:26:00,30.4,4.8,25.39,NNW,339,9.0,15.4,33,0.00,,,-99.99,FreeWX 2.04,2013-02-28 17:26:00,
2013-02-28 10:31:00,30.2,3.9,25.39,NNW,345,9.0,14.3,32,0.00,,,-99.99,FreeWX 2.04,2013-02-28 17:31:00,
2013-02-28 10:36:00,30.9,4.6,25.39,NNW,347,9.0,11.6,32,0.00,,,-99.99,FreeWX 2.04,2013-02-28 17:36:00,
2013-02-28 10:41:00,30.6,4.3,25.39,North,352,9.0,13.4,32,0.00,,,-99.99,FreeWX 2.04,2013-02-28 17:41:00,
2013-02-28 10:46:00,30.9,4.6,25.39,North,356,8.0,12.5,32,0.00,,,-99.99,FreeWX 2.04,2013-02-28 17:46:00,
2013-02-28 10:51:00,30.4,3.4,25.39,North,352,8.0,11.2,31,0.00,,,-99.99,FreeWX 2.04,2013-02-28 17:51:00,
2013-02-28 10:56:00,30.6,3.6,25.39,NNW,345,7.0,10.1,31,0.00,,,-99.99,FreeWX 2.04,2013-02-28 17:56:00,
2013-02-28 11:01:00,31.5,4.3,25.39,NNW,341,7.0,11.2,31,0.00,,,-99.99,FreeWX 2.04,2013-02-28 18:01:00,
2013-02-28 11:06:00,31.8,4.6,25.39,NNW,332,7.0,9.6,31,0.00,,,-99.99,FreeWX 2.04,2013-02-28 18:06:00,
2013-02-28 11:11:00,31.3,4.3,25.39,NW,319,6.0,8.7,31,0.00,,,-99.99,FreeWX 2.04,2013-02-28 18:11:00,
2013-02-28 11:16:00,32.2,5.0,25.39,NW,326,6.0,9.2,31,0.00,,,-99.99,FreeWX 2.04,2013-02-28 18:16:00,
2013-02-28 11:21:00,32.2,4.3,25.39,NNW,329,6.0,10.1,30,0.00,,,-99.99,FreeWX 2.04,2013-02-28 18:21:00,
2013-02-28 11:27:00,33.6,5.5,25.39,NNW,335,7.0,12.1,30,0.00,,,-99.99,FreeWX 2.04,2013-02-28 18:27:00,
2013-02-28 11:32:00,33.4,5.4,25.39,North,349,7.0,10.5,30,0.00,,,-99.99,FreeWX 2.04,2013-02-28 18:32:00,
2013-02-28 11:37:00,33.6,5.5,25.37,North,353,7.0,11.2,30,0.00,,,-99.99,FreeWX 2.04,2013-02-28 18:37:00,
2013-02-28 11:42:00,34.0,5.9,25.37,North,1,7.0,11.0,30,0.00,,,-99.99,FreeWX 2.04,2013-02-28 18:42:00,
2013-02-28 11:47:00,34.3,6.1,25.37,North,352,7.0,10.1,30,0.00,,,-99.99,FreeWX 2.04,2013-02-28 18:47:00,
2013-02-28 11:52:00,34.9,5.9,25.37,NNW,330,6.0,8.7,29,0.00,,,-99.99,FreeWX 2.04,2013-02-28 18:52:00,
2013-02-28 11:57:00,35.4,4.8,25.37,NNW,348,6.0,10.5,27,0.00,,,-99.99,FreeWX 2.04,2013-02-28 18:57:00,
2013-02-28 12:02:00,34.9,4.3,25.37,North,356,6.0,8.7,27,0.00,,,-99.99,FreeWX 2.04,2013-02-28 19:02:00,
2013-02-28 12:07:00,35.8,5.2,25.37,NNW,340,6.0,9.2,27,0.00,,,-99.99,FreeWX 2.04,2013-02-28 19:07:00,
2013-02-28 12:12:00,35.8,2.5,25.37,NNW,334,6.0,11.2,24,0.00,,,-99.99,FreeWX 2.04,2013-02-28 19:12:00,
2013-02-28 12:17:00,35.8,2.5,25.37,NW,318,6.0,9.6,24,0.00,,,-99.99,FreeWX 2.04,2013-02-28 19:17:00,
2013-02-28 12:22:00,36.1,2.8,25.37,WNW,302,5.0,10.1,24,0.00,,,-99.99,FreeWX 2.04,2013-02-28 19:22:00,
2013-02-28 12:27:00,36.0,0.9,25.37,NW,308,5.0,7.4,22,0.00,,,-99.99,FreeWX 2.04,2013-02-28 19:27:00,
2013-02-28 12:32:00,36.7,0.5,25.37,NNW,329,5.0,7.8,21,0.00,,,-99.99,FreeWX 2.04,2013-02-28 19:32:00,
2013-02-28 12:37:00,36.9,0.7,25.37,NW,325,5.0,7.8,21,0.00,,,-99.99,FreeWX 2.04,2013-02-28 19:37:00,
2013-02-28 12:42:00,37.0,0.9,25.37,NW,313,5.0,7.8,21,0.00,,,-99.99,FreeWX 2.04,2013-02-28 19:42:00,
2013-02-28 12:47:00,36.9,0.7,25.37,WNW,303,5.0,9.2,21,0.00,,,-99.99,FreeWX 2.04,2013-02-28 19:47:00,
2013-02-28 12:52:00,37.6,1.2,25.37,WNW,303,5.0,8.7,21,0.00,,,-99.99,FreeWX 2.04,2013-02-28 19:52:00,
2013-02-28 12:57:00,37.0,-1.3,25.37,NW,323,5.0,7.8,19,0.00,,,-99.99,FreeWX 2.04,2013-02-28 19:57:00,
2013-02-28 13:02:00,37.9,-0.6,25.37,NNW,337,4.0,7.4,19,0.00,,,-99.99,FreeWX 2.04,2013-02-28 20:02:00,
2013-02-28 13:07:00,38.8,-0.9,25.34,NW,315,4.0,7.4,18,0.00,,,-99.99,FreeWX 2.04,2013-02-28 20:07:00,
2013-02-28 13:12:00,38.3,-0.2,25.34,NW,310,4.0,7.4,19,0.00,,,-99.99,FreeWX 2.04,2013-02-28 20:12:00,
2013-02-28 13:17:00,38.8,-0.9,25.34,NNW,327,4.0,4.9,18,0.00,,,-99.99,FreeWX 2.04,2013-02-28 20:17:00,
2013-02-28 13:22:00,39.2,-3.1,25.34,North,350,3.0,8.7,16,0.00,,,-99.99,FreeWX 2.04,2013-02-28 20:22:00,
2013-02-28 13:27:00,38.8,-3.5,25.34,NE,53,4.0,6.7,16,0.00,,,-99.99,FreeWX 2.04,2013-02-28 20:27:00,
2013-02-28 13:32:00,38.3,-3.8,25.34,NNE,32,4.0,6.7,16,0.00,,,-99.99,FreeWX 2.04,2013-02-28 20:32:00,
2013-02-28 13:37:00,38.5,-3.8,25.34,NW,321,4.0,6.7,16,0.00,,,-99.99,FreeWX 2.04,2013-02-28 20:37:00,
2013-02-28 13:42:00,39.2,-3.1,25.34,NW,306,4.0,6.3,16,0.00,,,-99.99,FreeWX 2.04,2013-02-28 20:42:00,
2013-02-28 13:47:00,39.4,-3.1,25.34,WNW,303,4.0,7.8,16,0.00,,,-99.99,FreeWX 2.04,2013-02-28 20:47:00,
2013-02-28 13:52:00,40.3,-2.4,25.34,WSW,244,3.0,5.4,16,0.00,,,-99.99,FreeWX 2.04,2013-02-28 20:52:00,
2013-02-28 13:57:00,40.8,-1.8,25.34,SSW,198,2.0,6.3,16,0.00,,,-99.99,FreeWX 2.04,2013-02-28 20:57:00,
2013-02-28 14:02:00,40.8,-1.8,25.34,SSW,194,4.0,7.8,16,0.00,,,-99.99,FreeWX 2.04,2013-02-28 21:02:00,
2013-02-28 14:07:00,41.4,-1.5,25.34,NNE,24,4.0,5.8,16,0.00,,,-99.99,FreeWX 2.04,2013-02-28 21:07:00,
2013-02-28 14:12:00,40.6,-2.0,25.34,NNW,347,4.0,6.9,16,0.00,,,-99.99,FreeWX 2.04,2013-02-28 21:12:00,
2013-02-28 14:17:00,40.6,-2.0,25.34,West,278,5.0,8.3,16,0.00,,,-99.99,FreeWX 2.04,2013-02-28 21:17:00,
2013-02-28 14:22:00,40.6,-2.0,25.34,WSW,254,4.0,7.4,16,0.00,,,-99.99,FreeWX 2.04,2013-02-28 21:22:00,
2013-02-28 14:27:00,40.6,-2.0,25.34,WSW,254,2.0,6.3,16,0.00,,,-99.99,FreeWX 2.04,2013-02-28 21:27:00,
2013-02-28 14:32:00,41.4,-1.5,25.34,WSW,254,2.0,6.3,16,0.00,,,-99.99,FreeWX 2.04,2013-02-28 21:32:00,
2013-02-28 14:37:00,41.0,-1.7,25.34,SW,235,4.0,8.3,16,0.00,,,-99.99,FreeWX 2.04,2013-02-28 21:37:00,
2013-02-28 14:42:00,41.4,-1.5,25.34,South,189,5.0,9.2,16,0.00,,,-99.99,FreeWX 2.04,2013-02-28 21:42:00,
2013-02-28 14:47:00,41.2,-1.5,25.34,SW,214,5.0,8.3,16,0.00,,,-99.99,FreeWX 2.04,2013-02-28 21:47:00,
2013-02-28 14:52:00,41.0,-1.7,25.34,WSW,245,6.0,11.0,16,0.00,,,-99.99,FreeWX 2.04,2013-02-28 21:52:00,
2013-02-28 14:57:00,41.2,-1.5,25.34,West,278,5.0,6.9,16,0.00,,,-99.99,FreeWX 2.04,2013-02-28 21:57:00,
2013-02-28 15:02:00,41.5,-1.3,25.34,NW,321,4.0,6.3,16,0.00,,,-99.99,FreeWX 2.04,2013-02-28 22:02:00,
2013-02-28 15:07:00,41.5,-1.3,25.34,WNW,286,5.0,9.2,16,0.00,,,-99.99,FreeWX 2.04,2013-02-28 22:07:00,
2013-02-28 15:12:00,41.7,-1.1,25.34,WSW,256,6.0,9.2,16,0.00,,,-99.99,FreeWX 2.04,2013-02-28 22:12:00,
2013-02-28 15:17:00,41.7,-1.1,25.34,WSW,250,6.0,7.8,16,0.00,,,-99.99,FreeWX 2.04,2013-02-28 22:17:00,
2013-02-28 15:23:00,42.1,-2.2,25.34,WSW,241,5.0,11.6,15,0.00,,,-99.99,FreeWX 2.04,2013-02-28 22:23:00,
2013-02-28 15:28:00,42.3,-2.0,25.34,SW,224,6.0,7.8,15,0.00,,,-99.99,FreeWX 2.04,2013-02-28 22:28:00,
2013-02-28 15:33:00,41.9,-2.4,25.34,SW,234,6.0,10.1,15,0.00,,,-99.99,FreeWX 2.04,2013-02-28 22:33:00,
2013-02-28 15:38:00,41.5,-1.3,25.34,WSW,247,6.0,11.2,16,0.00,,,-99.99,FreeWX 2.04,2013-02-28 22:38:00,
2013-02-28 15:43:00,41.7,-1.1,25.34,WSW,249,5.0,8.7,16,0.00,,,-99.99,FreeWX 2.04,2013-02-28 22:43:00,
2013-02-28 15:48:00,41.5,-1.3,25.34,WSW,257,6.0,12.1,16,0.00,,,-99.99,FreeWX 2.04,2013-02-28 22:48:00,
2013-02-28 15:53:00,41.9,-2.4,25.34,WSW,251,6.0,9.6,15,0.00,,,-99.99,FreeWX 2.04,2013-02-28 22:53:00,
2013-02-28 15:58:00,41.7,-1.1,25.34,WSW,253,6.0,10.5,16,0.00,,,-99.99,FreeWX 2.04,2013-02-28 22:58:00,
2013-02-28 16:03:00,42.6,-1.7,25.34,WSW,239,6.0,8.7,15,0.00,,,-99.99,FreeWX 2.04,2013-02-28 23:03:00,
2013-02-28 16:08:00,42.3,-2.0,25.34,SW,216,6.0,8.3,15,0.00,,,-99.99,FreeWX 2.04,2013-02-28 23:08:00,
2013-02-28 16:13:00,42.3,-2.0,25.34,SSW,205,6.0,11.0,15,0.00,,,-99.99,FreeWX 2.04,2013-02-28 23:13:00,
2013-02-28 16:18:00,42.3,-2.0,25.34,South,191,6.0,9.2,15,0.00,,,-99.99,FreeWX 2.04,2013-02-28 23:18:00,
2013-02-28 16:23:00,42.3,-2.0,25.34,South,191,4.0,5.4,15,0.00,,,-99.99,FreeWX 2.04,2013-02-28 23:23:00,
2013-02-28 16:28:00,42.6,-1.7,25.34,South,189,4.0,10.1,15,0.00,,,-99.99,FreeWX 2.04,2013-02-28 23:28:00,
2013-02-28 16:33:00,42.4,-1.8,25.34,South,182,6.0,10.5,15,0.00,,,-99.99,FreeWX 2.04,2013-02-28 23:33:00,
2013-02-28 16:38:00,42.4,-1.8,25.31,South,183,6.0,8.7,15,0.00,,,-99.99,FreeWX 2.04,2013-02-28 23:38:00,
2013-02-28 16:43:00,42.3,-2.0,25.31,South,190,4.0,7.4,15,0.00,,,-99.99,FreeWX 2.04,2013-02-28 23:43:00,
2013-02-28 16:48:00,42.1,-2.2,25.31,SW,225,4.0,8.7,15,0.00,,,-99.99,FreeWX 2.04,2013-02-28 23:48:00,
2013-02-28 16:53:00,42.3,-2.0,25.31,WSW,251,4.0,5.8,15,0.00,,,-99.99,FreeWX 2.04,2013-02-28 23:53:00,
2013-02-28 16:58:00,42.6,-1.7,25.31,SW,232,4.0,9.6,15,0.00,,,-99.99,FreeWX 2.04,2013-02-28 23:58:00,
2013-02-28 17:03:00,42.3,-2.0,25.31,SSW,197,6.0,10.1,15,0.00,,,-99.99,FreeWX 2.04,2013-03-01 00:03:00,
2013-02-28 17:08:00,42.3,-2.0,25.31,South,186,6.0,9.6,15,0.00,,,-99.99,FreeWX 2.04,2013-03-01 00:08:00,
2013-02-28 17:13:00,42.1,-2.2,25.31,South,185,6.0,9.6,15,0.00,,,-99.99,FreeWX 2.04,2013-03-01 00:13:00,
2013-02-28 17:18:00,42.1,-2.2,25.31,SSE,165,5.0,6.9,15,0.00,,,-99.99,FreeWX 2.04,2013-03-01 00:18:00,
2013-02-28 17:23:00,41.9,-0.9,25.31,SE,140,5.0,6.9,16,0.00,,,-99.99,FreeWX 2.04,2013-03-01 00:23:00,
2013-02-28 17:28:00,41.0,-1.7,25.31,SE,136,4.0,6.7,16,0.00,,,-99.99,FreeWX 2.04,2013-03-01 00:28:00,
2013-02-28 17:33:00,40.5,-2.2,25.31,SE,144,4.0,4.9,16,0.00,,,-99.99,FreeWX 2.04,2013-03-01 00:33:00,
2013-02-28 17:38:00,40.3,-2.4,25.31,SSE,155,3.0,4.9,16,0.00,,,-99.99,FreeWX 2.04,2013-03-01 00:38:00,
2013-02-28 17:43:00,39.9,-2.6,25.31,SSE,155,3.0,4.5,16,0.00,,,-99.99,FreeWX 2.04,2013-03-01 00:43:00,
2013-02-28 17:48:00,39.4,-0.6,25.31,SSE,155,3.0,4.9,18,0.00,,,-99.99,FreeWX 2.04,2013-03-01 00:48:00,
2013-02-28 17:53:00,39.0,-0.8,25.34,SSE,155,3.0,4.9,18,0.00,,,-99.99,FreeWX 2.04,2013-03-01 00:53:00,
2013-02-28 17:58:00,38.7,-1.1,25.34,SSE,155,4.0,4.9,18,0.00,,,-99.99,FreeWX 2.04,2013-03-01 00:58:00,
2013-02-28 18:03:00,38.3,-0.2,25.34,SSE,155,3.0,4.9,19,0.00,,,-99.99,FreeWX 2.04,2013-03-01 01:03:00,
2013-02-28 18:08:00,37.9,-0.6,25.34,SSE,155,2.0,3.1,19,0.00,,,-99.99,FreeWX 2.04,2013-03-01 01:08:00,
2013-02-28 18:13:00,37.6,-0.9,25.34,SSE,155,1.0,3.1,19,0.00,,,-99.99,FreeWX 2.04,2013-03-01 01:13:00,
2013-02-28 18:18:00,37.4,-1.1,25.34,North,-999,0.0,2.7,19,0.00,,,-99.99,FreeWX 2.04,2013-03-01 01:18:00,
2013-02-28 18:23:00,37.0,-1.3,25.34,North,-999,0.0,2.7,19,0.00,,,-99.99,FreeWX 2.04,2013-03-01 01:23:00,
2013-02-28 18:28:00,36.9,-1.5,25.34,North,-999,0.0,3.1,19,0.00,,,-99.99,FreeWX 2.04,2013-03-01 01:28:00,
2013-02-28 18:33:00,36.9,-1.5,25.34,North,-999,0.0,3.6,19,0.00,,,-99.99,FreeWX 2.04,2013-03-01 01:33:00,
2013-02-28 18:38:00,36.7,0.5,25.34,North,-999,0.0,2.7,21,0.00,,,-99.99,FreeWX 2.04,2013-03-01 01:38:00,
2013-02-28 18:43:00,36.7,0.5,25.34,North,-999,0.0,3.6,21,0.00,,,-99.99,FreeWX 2.04,2013-03-01 01:43:00,
2013-02-28 18:48:00,36.0,0.9,25.34,North,-999,0.0,0.0,22,0.00,,,-99.99,FreeWX 2.04,2013-03-01 01:48:00,
2013-02-28 18:53:00,35.6,0.5,25.34,North,-999,0.0,0.0,22,0.00,,,-99.99,FreeWX 2.04,2013-03-01 01:53:00,
2013-02-28 18:58:00,35.6,2.5,25.34,North,-999,0.0,0.0,24,0.00,,,-99.99,FreeWX 2.04,2013-03-01 01:58:00,
2013-02-28 19:03:00,35.4,2.3,25.34,North,-999,0.0,0.0,24,0.00,,,-99.99,FreeWX 2.04,2013-03-01 02:03:00,
2013-02-28 19:08:00,35.2,2.1,25.34,North,-999,0.0,0.0,24,0.00,,,-99.99,FreeWX 2.04,2013-03-01 02:08:00,
2013-02-28 19:13:00,34.9,4.3,25.34,North,-999,0.0,2.7,27,0.00,,,-99.99,FreeWX 2.04,2013-03-01 02:13:00,
2013-02-28 19:18:00,34.5,6.3,25.34,SSE,155,1.0,4.9,30,0.00,,,-99.99,FreeWX 2.04,2013-03-01 02:18:00,
2013-02-28 19:23:00,34.3,6.1,25.34,SSE,155,1.0,4.0,30,0.00,,,-99.99,FreeWX 2.04,2013-03-01 02:23:00,
2013-02-28 19:28:00,34.2,6.1,25.34,North,-999,0.0,2.7,30,0.00,,,-99.99,FreeWX 2.04,2013-03-01 02:28:00,
2013-02-28 19:33:00,34.0,5.9,25.34,North,-999,0.0,2.7,30,0.00,,,-99.99,FreeWX 2.04,2013-03-01 02:33:00,
2013-02-28 19:38:00,34.0,5.9,25.34,North,-999,0.0,3.6,30,0.00,,,-99.99,FreeWX 2.04,2013-03-01 02:38:00,
2013-02-28 19:43:00,33.8,6.4,25.34,North,-999,0.0,0.0,31,0.00,,,-99.99,FreeWX 2.04,2013-03-01 02:43:00,
2013-02-28 19:48:00,33.8,6.4,25.34,North,-999,0.0,2.7,31,0.00,,,-99.99,FreeWX 2.04,2013-03-01 02:48:00,
2013-02-28 19:53:00,34.0,6.6,25.34,North,-999,0.0,4.9,31,0.00,,,-99.99,FreeWX 2.04,2013-03-01 02:53:00,
2013-02-28 19:58:00,34.2,6.8,25.34,SE,142,2.0,5.8,31,0.00,,,-99.99,FreeWX 2.04,2013-03-01 02:58:00,
2013-02-28 20:03:00,34.0,6.6,25.34,ESE,120,1.0,3.1,31,0.00,,,-99.99,FreeWX 2.04,2013-03-01 03:03:00,
2013-02-28 20:08:00,34.0,6.6,25.34,ESE,112,1.0,3.6,31,0.00,,,-99.99,FreeWX 2.04,2013-03-01 03:08:00,
2013-02-28 20:13:00,34.0,6.6,25.34,ESE,113,1.0,3.1,31,0.00,,,-99.99,FreeWX 2.04,2013-03-01 03:13:00,
2013-02-28 20:18:00,34.0,6.6,25.34,North,-999,0.0,4.9,31,0.00,,,-99.99,FreeWX 2.04,2013-03-01 03:18:00,
2013-02-28 20:23:00,34.0,6.6,25.34,ESE,112,2.0,4.9,31,0.00,,,-99.99,FreeWX 2.04,2013-03-01 03:23:00,
2013-02-28 20:28:00,33.8,6.4,25.34,ESE,111,2.0,4.5,31,0.00,,,-99.99,FreeWX 2.04,2013-03-01 03:28:00,
2013-02-28 20:33:00,33.6,6.3,25.34,ESE,110,1.0,4.0,31,0.00,,,-99.99,FreeWX 2.04,2013-03-01 03:33:00,
2013-02-28 20:38:00,33.6,6.3,25.34,ESE,110,1.0,3.6,31,0.00,,,-99.99,FreeWX 2.04,2013-03-01 03:38:00,
2013-02-28 20:43:00,33.6,6.3,25.34,North,-999,0.0,3.1,31,0.00,,,-99.99,FreeWX 2.04,2013-03-01 03:43:00,
2013-02-28 20:49:00,33.6,6.3,25.37,North,-999,0.0,3.6,31,0.00,,,-99.99,FreeWX 2.04,2013-03-01 03:49:00,
2013-02-28 20:54:00,33.4,6.1,25.37,North,-999,0.0,4.0,31,0.00,,,-99.99,FreeWX 2.04,2013-03-01 03:54:00,
2013-02-28 20:59:00,33.3,5.9,25.37,North,-999,0.0,3.1,31,0.00,,,-99.99,FreeWX 2.04,2013-03-01 03:59:00,
2013-02-28 21:04:00,33.3,5.9,25.37,ESE,110,1.0,4.5,31,0.00,,,-99.99,FreeWX 2.04,2013-03-01 04:04:00,
2013-02-28 21:09:00,33.3,5.9,25.37,ESE,110,2.0,5.4,31,0.00,,,-99.99,FreeWX 2.04,2013-03-01 04:09:00,
2013-02-28 21:14:00,32.9,5.5,25.37,ESE,110,1.0,2.7,31,0.00,,,-99.99,FreeWX 2.04,2013-03-01 04:14:00,
2013-02-28 21:19:00,33.3,5.9,25.37,North,-999,0.0,6.3,31,0.00,,,-99.99,FreeWX 2.04,2013-03-01 04:19:00,
2013-02-28 21:24:00,33.3,5.9,25.37,ESE,106,1.0,4.5,31,0.00,,,-99.99,FreeWX 2.04,2013-03-01 04:24:00,
2013-02-28 21:29:00,33.3,5.9,25.37,ESE,103,1.0,4.0,31,0.00,,,-99.99,FreeWX 2.04,2013-03-01 04:29:00,
2013-02-28 21:34:00,33.4,6.1,25.37,East,95,3.0,6.3,31,0.00,,,-99.99,FreeWX 2.04,2013-03-01 04:34:00,
2013-02-28 21:39:00,33.6,6.3,25.37,East,84,4.0,5.8,31,0.00,,,-99.99,FreeWX 2.04,2013-03-01 04:39:00,
2013-02-28 21:44:00,33.6,6.3,25.37,East,79,4.0,5.4,31,0.00,,,-99.99,FreeWX 2.04,2013-03-01 04:44:00,
2013-02-28 21:49:00,33.4,6.1,25.37,East,88,4.0,6.7,31,0.00,,,-99.99,FreeWX 2.04,2013-03-01 04:49:00,
2013-02-28 21:54:00,33.1,5.7,25.37,East,98,3.0,5.4,31,0.00,,,-99.99,FreeWX 2.04,2013-03-01 04:54:00,
2013-02-28 21:59:00,32.7,5.5,25.37,East,98,2.0,4.5,31,0.00,,,-99.99,FreeWX 2.04,2013-03-01 04:59:00,
2013-02-28 22:04:00,32.5,5.4,25.37,East,99,1.0,4.9,31,0.00,,,-99.99,FreeWX 2.04,2013-03-01 05:04:00,
2013-02-28 22:09:00,32.5,5.4,25.37,East,100,1.0,4.0,31,0.00,,,-99.99,FreeWX 2.04,2013-03-01 05:09:00,
2013-02-28 22:14:00,32.5,5.4,25.37,North,-999,0.0,3.6,31,0.00,,,-99.99,FreeWX 2.04,2013-03-01 05:14:00,
2013-02-28 22:19:00,32.2,5.0,25.37,North,-999,0.0,4.5,31,0.00,,,-99.99,FreeWX 2.04,2013-03-01 05:19:00,
2013-02-28 22:24:00,32.7,5.5,25.37,East,100,1.0,4.9,31,0.00,,,-99.99,FreeWX 2.04,2013-03-01 05:24:00,
2013-02-28 22:29:00,32.7,5.5,25.37,East,99,2.0,5.4,31,0.00,,,-99.99,FreeWX 2.04,2013-03-01 05:29:00,
2013-02-28 22:34:00,32.7,5.5,25.37,East,98,2.0,3.6,31,0.00,,,-99.99,FreeWX 2.04,2013-03-01 05:34:00,
2013-02-28 22:39:00,32.5,5.4,25.37,North,-999,0.0,3.6,31,0.00,,,-99.99,FreeWX 2.04,2013-03-01 05:39:00,
2013-02-28 22:44:00,32.7,5.5,25.37,East,97,1.0,4.9,31,0.00,,,-99.99,FreeWX 2.04,2013-03-01 05:44:00,
2013-02-28 22:49:00,32.7,5.5,25.37,North,-999,0.0,3.1,31,0.00,,,-99.99,FreeWX 2.04,2013-03-01 05:49:00,
2013-02-28 22:54:00,32.5,5.4,25.37,North,-999,0.0,4.5,31,0.00,,,-99.99,FreeWX 2.04,2013-03-01 05:54:00,
2013-02-28 22:59:00,32.5,5.4,25.37,North,-999,0.0,3.6,31,0.00,,,-99.99,FreeWX 2.04,2013-03-01 05:59:00,
2013-02-28 23:04:00,32.5,5.4,25.37,East,98,1.0,5.8,31,0.00,,,-99.99,FreeWX 2.04,2013-03-01 06:04:00,
2013-02-28 23:09:00,32.5,5.4,25.37,East,99,2.0,4.5,31,0.00,,,-99.99,FreeWX 2.04,2013-03-01 06:09:00,
2013-02-28 23:14:00,32.5,5.4,25.37,East,100,1.0,4.5,31,0.00,,,-99.99,FreeWX 2.04,2013-03-01 06:14:00,
2013-02-28 23:19:00,32.5,5.4,25.37,East,96,1.0,5.4,31,0.00,,,-99.99,FreeWX 2.04,2013-03-01 06:19:00,
2013-02-28 23:24:00,32.5,5.4,25.37,East,90,1.0,3.1,31,0.00,,,-99.99,FreeWX 2.04,2013-03-01 06:24:00,
2013-02-28 23:29:00,32.4,5.2,25.37,North,-999,0.0,3.6,31,0.00,,,-99.99,FreeWX 2.04,2013-03-01 06:29:00,
2013-02-28 23:34:00,32.4,5.2,25.37,East,90,1.0,4.0,31,0.00,,,-99.99,FreeWX 2.04,2013-03-01 06:34:00,
2013-02-28 23:39:00,32.4,5.2,25.37,East,94,2.0,5.4,31,0.00,,,-99.99,FreeWX 2.04,2013-03-01 06:39:00,
2013-02-28 23:44:00,32.4,5.2,25.37,SE,124,4.0,6.7,31,0.00,,,-99.99,FreeWX 2.04,2013-03-01 06:44:00,
2013-02-28 23:49:00,32.2,5.0,25.37,SSE,159,4.0,5.8,31,0.00,,,-99.99,FreeWX 2.04,2013-03-01 06:49:00,
2013-02-28 23:54:00,31.6,4.5,25.37,SSE,167,2.0,2.7,31,0.00,,,-99.99,FreeWX 2.04,2013-03-01 06:54:00,
2013-02-28 23:59:00,30.9,4.6,25.37,North,-999,0.0,4.5,32,0.00,,,-99.99,FreeWX 2.04,2013-03-01 06:59:00,